Terminal Aerodrome Forecast
Issued by NWS Louisville, KY

Home | Current Version | Previous Version | Text Only | Print | Product List | Glossary On
Versions: 1 2 3 4 5 6 7 8 9 10 11 12 13 14 15 16 17 18 19 20
864
FTUS43 KLMK 171123
TAFLEX
TAF
KLEX 171123Z 1712/1812 22010KT P6SM BKN250 WS019/27040KT
     FM171300 22012G19KT P6SM SCT250
     FM180000 20008KT P6SM SCT250=

USA.gov is the U.S. government's official web portal to all federal, state and local government web resources and services.